Hourly Data Report for August 30, 2015

All times are specified in Local Standard Time (LST). Add 1 hour to adjust for Daylight Saving Time where and when it is observed.

TORONTO INTL A
ONTARIO

43°40'36.000" N
79°37'50.000" W
173.40 m
6158731
71624
YYZ

Download Data

Hourly Data (August 2015)
Hourly Data Report for August 30, 2015
Temp Definition
°C
Dew Point Temp Definition
°C
Rel Hum Definition
%
Wind Dir Definition
10's deg

Wind Spd Definition
km/h
Visibility Definition
km
Stn Press Definition
kPa
Hmdx Definition


Wind Chill Definition


Weather Definition


TIME
00:00 Legend Double Dagger 20.3 14.7 70 8 7 24.1 99.78     LegendNANA
01:00 Legend Double Dagger 19.6 15.3 76 4 7 24.1 99.72     Cloudy
02:00 Legend Double Dagger 20.0 14.9 72 0 1 24.1 99.73     LegendNANA
03:00 Legend Double Dagger 19.7 15.4 76 36 3 24.1 99.70     LegendNANA
04:00 Legend Double Dagger 19.7 15.2 75 17 3 24.1 99.71     Cloudy
05:00 Legend Double Dagger 19.0 15.5 80 23 5 24.1 99.72     LegendNANA
06:00 Legend Double Dagger 18.8 15.9 83 30 7 16.1 99.76     LegendNANA
07:00 Legend Double Dagger 18.9 16.2 84 24 3 16.1 99.79     Mostly Cloudy
08:00 Legend Double Dagger 20.1 16.2 78 36 3 16.1 99.81 25   LegendNANA
09:00 Legend Double Dagger 20.8 16.1 74 1 8 16.1 99.83 25   LegendNANA
10:00 Legend Double Dagger 22.6 16.3 67 36 3 24.1 99.84 27   Mostly Cloudy
11:00 Legend Double Dagger 23.8 16.2 62 7 4 24.1 99.81 29   LegendNANA
12:00 Legend Double Dagger 25.4 16.7 58 12 10 24.1 99.75 30   LegendNANA
13:00 Legend Double Dagger 24.1 17.2 65 16 13 24.1 99.71 30   Mostly Cloudy
14:00 Legend Double Dagger 25.4 17.0 59 14 11 24.1 99.68 31   LegendNANA
15:00 Legend Double Dagger 25.1 16.9 60 13 10 24.1 99.61 30   LegendNANA
16:00 Legend Double Dagger 24.7 16.6 60 16 13 24.1 99.56 30   Mostly Cloudy
17:00 Legend Double Dagger 24.9 16.5 59 15 16 24.1 99.54 30   LegendNANA
18:00 Legend Double Dagger 23.7 15.6 60 16 15 24.1 99.54 28   LegendNANA
19:00 Legend Double Dagger 23.2 15.9 63 16 11 24.1 99.54 28   Mostly Cloudy
20:00 Legend Double Dagger 22.4 17.8 75 15 7 24.1 99.57 28   LegendNANA
21:00 Legend Double Dagger 22.3 18.6 79 15 7 24.1 99.59 29   LegendNANA
22:00 Legend Double Dagger 22.0 18.5 80 21 4 24.1 99.55 28   Mainly Clear
23:00 Legend Double Dagger 21.2 18.4 84 23 11 24.1 99.53 28   LegendNANA

Notes on Data Quality.

Legend

  • E = Estimated
  • M = Missing
  • NA = Not Available
  • ‡ = Partner data that is not subject to review by the National Climate Archives
Date modified: